Regional Weather Roundup
Issued by NWS Nashville, TN

Home | Current Version | Previous Version | Text Only | Print | Product List | Glossary On
Versions: 1 2 3 4 5 6 7 8 9 10 11 12 13 14 15 16 17 18 19 20 21 22 23 24 25 26 27 28 29 30 31 32 33 34 35 36 37 38 39 40 41 42 43 44 45 46 47 48 49 50
000
ASUS44 KOHX 252305
RWROHX
MIDDLE TENNESSEE HOURLY WEATHER ROUNDUP
NATIONAL WEATHER SERVICE NASHVILLE TN
500 PM CST SUN JAN 25 2015

NOTE: "FAIR" INDICATES FEW OR NO CLOUDS BELOW 12,000 FEET WITH
NO SIGNIFICANT WEATHER AND/OR OBSTRUCTIONS TO VISIBILITY.

* THESE REPORTS ARE NOT UNDER NWS QUALITY CONTROL AND MAY NOT
  REPORT WEATHER SUCH AS PRECIPITATION AND FOG.


TNZ005>011-023>034-057-059-062>066-078-080-260000
...NORTHERN MIDDLE TENNESSEE...

CITY           SKY/WX    TMP DP  RH WIND       PRES   REMARKS
CLARKSVILLE    LGT RAIN  42  39  89 W16G23    29.67R
CROSSVILLE     CLOUDY    47  35  63 VRB6      29.67F
NASHVILLE      RAIN      49  42  77 W14G22    29.68R
SMYRNA         LGT RAIN  48  42  80 SW12      29.68R
SPARTA         CLOUDY    48  39  71 SW10      29.65R
$$
TNZ056-058-060-061-075>077-079-093>097-260000
...SOUTHERN MIDDLE TENNESSEE...

CITY           SKY/WX    TMP DP  RH WIND       PRES   REMARKS
COLUMBIA       MOCLDY    46  46 100 W6        29.68R
MCMINNVILLE    CLOUDY    50  37  62 SW7       29.68R
SHELBYVILLE    CLOUDY    50  41  71 S10       29.68S
TULLAHOMA      CLOUDY    46  39  76 S7        29.70R
WINCHESTER     CLOUDY    48  39  71 SW6       29.71R
$$


...KEY TO REMARKS...
VSB - VISIBILITY IN MILES
WCI - WIND CHILL INDEX
HX  - HEAT INDEX



USA.gov is the U.S. government's official web portal to all federal, state and local government web resources and services.